Date,TemperatureHighF,TemperatureAvgF,TemperatureLowF,DewpointHighF,DewpointAvgF,DewpointLowF,HumidityHigh,HumidityAvg,HumidityLow,PressureMaxIn,PressureMinIn,WindSpeedMaxMPH,WindSpeedAvgMPH,GustSpeedMaxMPH,PrecipitationSumIn
2013-1-1,36.0,32.0,30.4,34.8,22.1,-99.9,98,83,74,30.11,30.00,2,-57,7,0.23
2013-1-2,36.5,29.5,23.8,23.5,19.7,16.5,86,68,46,30.24,30.09,3,0,5,0.04
2013-1-3,42.2,29.4,20.0,26.3,20.8,17.8,93,72,44,30.32,30.20,4,1,6,0.00
2013-1-4,40.6,33.0,29.0,24.0,22.3,21.2,77,65,50,30.38,30.29,6,2,14,0.00
2013-1-5,45.5,33.5,20.6,28.4,23.9,18.4,93,70,44,30.42,30.19,3,0,6,0.00
2013-1-6,44.8,39.8,32.5,32.4,27.8,21.5,73,62,56,30.32,30.01,10,2,14,0.00
2013-1-7,41.8,33.0,25.1,25.3,23.4,21.4,88,68,50,30.50,30.25,3,0,5,0.00
2013-1-8,54.4,34.8,21.1,31.5,25.4,19.1,93,72,36,30.39,30.26,5,0,7,0.00
2013-1-9,53.1,41.3,31.3,48.3,37.7,27.3,98,87,75,30.49,30.24,3,0,4,0.03
2013-1-10,46.7,38.9,30.7,42.8,36.9,30.5,100,93,78,30.53,30.15,3,0,6,0.02
2013-1-11,63.1,51.5,39.9,58.4,46.7,-99.9,99,89,72,30.14,29.92,9,-16,14,0.30
2013-1-12,68.6,56.8,45.1,63.0,55.5,45.1,100,96,78,30.05,29.86,4,0,8,0.09
2013-1-13,64.3,59.2,47.9,60.1,57.3,46.8,100,94,74,29.99,29.81,9,1,16,0.76
2013-1-14,47.6,34.1,31.3,45.6,18.9,-99.9,95,72,68,30.39,30.02,8,-98,13,0.00
2013-1-15,36.3,32.9,30.4,31.8,28.1,25.5,96,83,72,30.34,30.04,4,1,7,0.53
2013-1-16,35.8,31.4,32.7,34.5,23.0,-99.9,98,89,93,30.09,29.87,5,-75,10,0.24
2013-1-17,35.6,33.8,29.0,33.4,30.0,26.8,95,86,76,30.32,30.08,3,0,11,0.00
2013-1-18,39.2,31.6,22.4,28.3,20.8,15.3,94,65,41,30.56,30.32,5,1,14,0.00
2013-1-19,56.0,44.1,27.6,28.1,24.7,20.4,76,48,29,30.32,29.96,8,3,21,0.00
2013-1-20,47.3,41.6,26.4,32.3,20.0,5.0,71,44,20,30.16,29.95,7,3,20,0.00
2013-1-21,35.8,26.7,18.3,18.5,12.7,0.5,83,57,36,30.21,30.02,8,3,25,0.00
2013-1-22,23.2,17.0,10.9,2.0,-1.2,-5.4,61,45,30,30.38,30.20,6,2,18,0.00
2013-1-23,24.2,19.8,12.3,8.4,2.8,-1.5,64,47,35,30.38,30.09,3,1,10,0.00
2013-1-24,25.6,21.6,16.9,14.3,6.7,0.1,72,53,35,30.55,30.09,8,2,24,0.00
2013-1-25,26.6,22.3,20.2,24.3,14.3,4.4,91,73,48,30.48,30.04,2,0,7,0.00
2013-1-26,34.7,28.6,21.4,24.8,21.5,18.0,91,75,56,30.45,30.17,4,1,16,0.07
2013-1-27,40.3,29.5,15.6,32.6,21.0,13.2,92,73,48,30.48,30.24,3,0,8,0.11
2013-1-28,62.1,48.1,34.9,52.7,44.5,32.8,99,88,59,30.24,30.06,10,2,28,0.28
2013-1-29,71.6,59.4,48.0,54.3,48.8,-99.9,97,73,52,30.07,29.70,7,-15,20,0.01
2013-1-30,69.3,58.2,39.2,58.9,52.0,35.1,99,81,60,29.70,29.28,11,4,34,1.44
2013-1-31,39.2,31.5,27.3,34.7,22.4,16.4,91,69,55,29.94,29.47,12,4,34,0.01
2013-2-1,28.2,16.3,9.5,26.6,6.5,0.0,95,66,47,30.43,29.89,12,3,29,0.02
2013-2-2,30.0,21.1,9.0,29.0,17.5,4.8,96,86,68,30.38,30.01,4,1,10,0.01
2013-2-3,29.7,27.4,25.3,28.4,22.0,17.3,95,80,67,30.14,29.91,5,1,18,0.00
2013-2-4,40.6,29.0,16.1,37.5,22.5,13.4,95,78,52,30.14,29.83,4,1,19,0.11
2013-2-5,46.0,39.6,36.0,38.2,36.6,32.9,98,89,69,29.98,29.83,5,0,17,0.04
2013-2-6,46.2,39.2,32.2,32.3,28.9,26.4,80,67,49,30.25,29.98,4,1,17,0.00
2013-2-7,62.3,44.0,32.4,36.6,31.1,26.9,85,64,30,30.24,29.85,3,1,10,0.00
2013-2-8,48.5,41.1,33.7,43.9,33.0,24.6,94,73,64,30.27,29.77,10,3,26,0.11
2013-2-9,43.8,33.0,24.8,25.4,19.9,16.0,80,60,37,30.42,30.25,2,1,12,0.00
2013-2-10,58.6,39.6,23.9,42.9,28.3,19.5,89,67,28,30.25,29.85,7,1,21,0.12
2013-2-11,59.9,52.8,42.2,49.4,35.5,24.4,84,55,28,30.03,29.80,11,4,28,0.01
2013-2-12,53.3,40.6,29.1,28.0,24.9,20.4,85,57,29,30.13,29.88,4,1,13,0.00
2013-2-13,41.8,35.2,29.5,33.7,29.5,24.5,94,81,59,29.92,29.68,7,1,16,0.08
2013-2-14,53.1,39.8,28.1,35.9,31.9,27.0,97,76,45,29.97,29.85,7,2,19,0.01
2013-2-15,40.2,35.6,31.2,36.7,32.1,25.8,95,87,76,30.10,29.93,3,0,12,0.14
2013-2-16,34.4,28.3,22.4,26.7,18.5,7.8,90,68,42,30.09,29.97,8,2,19,0.00
2013-2-17,32.2,23.4,17.2,11.5,7.2,3.2,77,51,30,30.27,30.08,6,2,19,0.00
2013-2-18,59.2,37.7,14.6,34.3,21.3,10.6,87,56,35,30.27,29.79,7,2,19,0.00
2013-2-19,51.3,41.4,29.3,38.9,27.7,14.1,89,59,38,30.07,29.74,9,5,33,0.06
2013-2-20,35.2,28.4,22.5,16.2,12.9,10.5,63,52,39,30.30,30.07,6,3,19,0.00
2013-2-21,35.8,26.0,14.3,18.6,15.0,10.6,86,64,48,30.37,30.16,5,1,13,0.00
2013-2-22,62.4,42.2,29.5,47.8,36.3,18.1,97,81,52,30.16,29.86,7,1,20,0.14
2013-2-23,52.0,43.8,32.7,40.2,35.1,28.0,90,73,46,29.95,29.83,5,1,14,0.00
2013-2-24,46.0,35.0,24.7,29.2,24.5,20.2,95,68,40,30.15,29.89,5,1,18,0.00
2013-2-25,46.8,34.9,21.0,24.6,20.9,18.1,91,59,37,30.18,29.90,7,2,14,0.00
2013-2-26,52.5,44.6,38.3,47.0,37.0,21.7,95,76,51,29.91,29.38,8,2,19,0.56
2013-2-27,44.1,37.9,34.6,38.8,28.3,-99.9,90,79,75,29.75,29.52,7,-48,19,0.10
2013-2-28,35.3,34.5,32.8,34.0,30.7,27.7,96,86,78,29.90,29.69,5,2,17,0.05
2013-3-1,39.2,34.4,31.9,34.2,25.8,-99.9,96,78,65,30.01,29.88,3,-33,9,0.01
2013-3-2,31.9,30.1,27.9,23.6,20.5,17.1,82,67,58,30.07,29.97,6,2,11,0.01
2013-3-3,32.1,29.0,27.0,23.0,19.5,15.5,80,68,52,30.10,30.03,7,2,12,0.00
2013-3-4,44.6,32.8,17.8,30.9,18.5,12.0,92,60,27,30.21,30.03,3,0,7,0.03
2013-3-5,46.4,39.1,32.5,45.0,34.4,27.5,98,83,72,30.05,29.46,13,2,18,0.60
2013-3-6,36.2,31.4,29.5,32.0,25.2,-99.9,96,86,80,30.24,29.63,7,-32,13,0.11
2013-3-7,40.5,35.0,29.7,29.8,28.8,26.0,87,78,64,30.37,30.23,4,1,7,0.01
2013-3-8,49.5,35.1,23.5,31.0,25.6,22.0,96,72,39,30.47,30.35,5,1,10,0.01
2013-3-9,62.9,42.0,23.6,35.1,27.9,21.8,95,63,27,30.39,30.09,3,1,6,0.00
2013-3-10,76.5,59.5,41.9,38.5,34.3,29.8,79,45,20,30.10,29.86,7,2,12,0.00
2013-3-11,66.1,58.6,43.5,52.8,40.7,30.3,92,56,29,29.86,29.65,9,4,18,0.16
2013-3-12,43.5,39.3,33.7,38.1,31.3,28.6,85,73,57,30.03,29.84,5,2,13,0.01
2013-3-13,39.3,33.8,29.5,30.9,24.0,16.0,88,68,45,30.31,30.02,9,3,19,0.00
2013-3-14,47.0,33.9,23.6,23.4,18.4,11.5,82,57,25,30.38,30.21,7,2,11,0.00
2013-3-15,59.2,43.5,26.9,39.1,29.2,19.6,81,59,40,30.22,29.82,5,1,12,0.00
2013-3-16,71.8,54.2,42.8,51.5,43.8,35.4,95,70,45,29.97,29.59,9,2,19,0.17
2013-3-17,42.6,35.5,32.8,35.2,32.7,31.5,96,90,75,30.14,29.95,4,1,7,0.49
2013-3-18,55.1,44.8,34.6,51.2,43.0,33.6,99,94,83,30.01,29.64,10,3,13,1.24
2013-3-19,50.1,43.9,37.9,45.0,22.7,7.5,84,48,19,30.09,29.75,12,5,28,0.00
2013-3-20,48.8,37.5,25.8,20.2,16.1,10.0,73,43,29,30.10,29.84,10,4,21,0.00
2013-3-21,32.4,26.4,22.1,21.1,12.3,7.3,87,56,36,30.07,29.93,7,2,19,0.01
2013-3-22,47.4,31.2,17.3,19.5,14.4,11.7,82,54,25,30.10,29.98,4,1,8,0.00
2013-3-23,54.7,40.0,25.8,25.9,21.2,16.4,74,51,23,30.07,29.87,3,0,6,0.00
2013-3-24,40.5,38.5,34.7,38.6,29.2,19.2,98,72,42,29.87,29.39,5,2,10,0.62
2013-3-25,39.2,34.9,32.2,38.6,31.4,27.2,98,87,71,29.89,29.41,8,3,14,0.11
2013-3-26,41.3,35.7,33.1,34.7,31.3,29.1,92,84,67,30.22,29.89,8,2,11,0.04
2013-3-27,43.9,37.4,30.3,29.5,27.1,23.5,83,67,45,30.29,30.21,6,2,13,0.00
2013-3-28,52.8,39.2,25.7,29.8,24.8,21.4,93,61,31,30.34,30.26,6,1,11,0.00
2013-3-29,58.9,42.9,25.4,32.5,26.3,22.6,91,57,29,30.33,30.18,4,1,10,0.00
2013-3-30,62.7,48.1,30.7,36.8,31.4,27.9,93,57,28,30.25,29.95,4,1,7,0.00
2013-3-31,55.0,48.7,43.6,51.2,44.0,33.4,98,84,62,29.95,29.77,4,1,8,0.10
2013-4-1,49.4,45.3,31.6,44.6,34.4,19.8,93,68,37,30.09,29.80,7,2,16,0.02
2013-4-2,51.0,36.5,23.6,25.3,18.9,12.8,88,55,23,30.27,30.09,6,1,10,0.00
2013-4-3,51.0,38.1,23.0,23.7,16.4,9.4,84,46,19,30.40,30.25,5,1,10,0.00
2013-4-4,54.4,42.8,32.4,39.0,21.1,13.9,85,44,27,30.34,30.00,5,1,8,0.00
2013-4-5,66.1,49.3,30.6,43.0,31.5,24.0,99,59,24,30.10,29.94,6,2,11,0.00
2013-4-6,69.3,53.1,32.8,34.8,25.4,20.3,70,36,21,30.22,29.95,4,1,10,0.00
2013-4-7,74.9,65.4,56.5,51.6,40.0,29.7,80,41,28,29.97,29.91,11,4,18,0.00
2013-4-8,77.2,62.9,48.0,51.5,48.1,44.9,90,62,36,30.00,29.89,9,2,17,0.00
2013-4-9,85.5,67.7,52.3,57.4,50.9,47.8,85,59,30,30.06,29.91,7,2,13,0.00
2013-4-10,86.5,72.0,56.0,59.4,53.9,50.6,84,56,32,29.97,29.76,9,3,25,0.00
2013-4-11,82.4,70.1,57.6,61.0,53.7,46.2,92,60,30,29.78,29.48,8,2,12,0.11
2013-4-12,59.8,55.8,49.8,58.2,44.2,33.9,97,68,38,29.91,29.45,8,4,14,0.21
2013-4-13,63.7,50.4,37.8,35.9,33.9,30.1,87,56,29,30.01,29.91,8,2,17,0.00
2013-4-14,72.1,55.7,36.8,44.8,37.1,33.8,91,55,28,30.09,29.87,4,1,7,0.00
2013-4-15,73.7,65.3,57.3,53.5,50.3,41.9,80,59,43,30.01,29.91,6,3,11,0.00
2013-4-16,87.0,70.5,58.4,63.3,55.1,50.7,93,61,30,30.17,29.98,9,3,13,0.77
2013-4-17,77.7,67.2,60.4,63.4,60.2,57.9,99,81,52,30.22,29.99,7,1,19,0.35
2013-4-18,85.9,72.1,55.7,59.6,55.9,50.6,98,62,34,29.99,29.67,9,4,17,0.00
2013-4-19,75.4,57.6,44.2,60.9,45.4,30.8,94,65,43,30.01,29.50,9,4,19,0.33
2013-4-20,57.5,47.7,37.9,33.3,28.2,21.1,77,49,26,30.37,30.01,6,2,17,0.00
2013-4-21,60.9,48.5,33.4,31.0,26.5,23.2,79,45,25,30.51,30.33,4,1,9,0.00
2013-4-22,70.8,54.9,35.9,41.0,35.0,23.0,82,51,26,30.35,30.13,5,1,8,0.00
2013-4-23,75.3,60.0,40.9,49.5,40.6,31.6,82,52,30,30.16,29.91,4,1,11,0.00
2013-4-24,68.1,57.8,39.6,57.5,45.6,35.3,90,65,47,30.23,29.77,10,3,14,0.14
2013-4-25,63.9,49.4,37.6,40.0,34.6,25.7,95,62,25,30.34,30.23,6,1,17,0.00
2013-4-26,66.0,51.8,33.7,39.5,32.6,28.1,91,53,25,30.46,30.32,2,0,5,0.00
2013-4-27,68.1,55.9,41.2,50.9,41.7,35.4,87,62,33,30.33,30.09,4,1,7,0.00
2013-4-28,68.8,60.8,55.1,54.9,53.0,50.5,96,77,58,30.09,29.84,7,3,13,0.22
2013-4-29,66.0,60.5,54.4,56.6,54.8,52.1,97,82,63,29.98,29.89,4,0,7,0.02
2013-4-30,79.6,62.8,48.2,59.6,52.1,47.7,100,73,34,30.05,29.97,4,1,7,0.00
2013-5-1,81.6,67.3,51.1,57.4,52.6,47.6,98,64,34,30.18,30.04,6,2,8,0.00
2013-5-2,75.8,66.6,56.5,57.9,52.5,47.8,78,61,46,30.23,30.08,6,2,9,0.00
2013-5-3,75.4,66.2,53.9,53.9,44.7,34.5,84,50,25,30.12,30.00,8,3,16,0.00
2013-5-4,74.0,63.1,53.5,48.4,44.0,37.0,77,51,35,30.03,29.91,8,2,12,0.00
2013-5-5,61.5,57.3,53.5,56.1,47.0,32.2,97,71,36,29.99,29.87,5,1,8,0.35
2013-5-6,62.6,58.2,55.4,58.4,53.4,49.0,95,84,72,29.89,29.84,5,2,10,0.17
2013-5-7,68.6,57.5,49.6,59.6,54.7,48.5,99,91,65,29.94,29.87,3,0,5,0.31
2013-5-8,73.3,61.2,53.9,59.4,55.7,51.4,100,84,47,29.97,29.85,4,1,7,0.02
2013-5-9,80.1,65.8,51.3,62.7,56.7,50.9,99,76,42,30.03,29.94,3,0,8,0.00
2013-5-10,76.8,66.3,59.3,63.8,60.2,56.3,95,82,57,29.97,29.82,8,2,9,0.11
2013-5-11,63.5,60.3,51.0,61.1,55.9,48.5,97,86,71,29.91,29.79,5,2,10,0.03
2013-5-12,61.0,51.0,41.2,50.5,35.5,27.8,95,59,31,30.12,29.91,6,2,16,0.01
2013-5-13,63.1,50.5,38.6,40.5,34.0,27.8,92,59,27,30.17,30.09,6,1,13,0.00
2013-5-14,79.2,53.1,35.2,55.1,43.2,33.6,95,73,36,30.17,29.84,5,0,6,0.00
2013-5-15,88.2,74.9,58.3,60.8,54.6,48.0,88,53,29,29.92,29.80,8,3,14,0.00
2013-5-16,77.0,67.7,61.5,66.3,58.2,49.4,98,74,49,29.98,29.84,4,1,12,0.37
2013-5-17,81.1,68.4,58.3,67.0,62.2,58.0,100,82,57,30.06,29.97,3,0,7,0.01
2013-5-18,81.8,70.3,62.4,68.2,63.6,60.0,99,82,49,30.03,29.92,5,1,11,0.08
2013-5-19,85.9,72.2,63.9,70.4,65.7,63.1,98,82,50,30.00,29.88,3,1,7,0.01
2013-5-20,84.1,73.4,63.2,71.1,66.6,62.3,98,81,59,30.01,29.89,4,1,8,0.00
2013-5-21,88.4,75.0,64.8,70.7,67.0,62.9,98,78,49,29.95,29.80,9,1,9,0.05
2013-5-22,86.3,73.2,60.5,67.4,62.7,59.6,98,73,43,29.88,29.74,8,2,16,0.03
2013-5-23,77.9,69.2,58.4,67.3,61.0,53.8,97,77,48,29.94,29.78,8,2,15,0.15
2013-5-24,64.5,55.5,45.7,54.5,40.9,35.7,88,60,35,30.29,29.94,6,3,17,0.02
2013-5-25,67.6,53.4,37.6,47.8,39.9,33.1,97,65,32,30.38,30.21,3,1,6,0.00
2013-5-26,72.7,60.8,47.1,48.8,43.7,37.4,85,56,33,30.30,30.18,3,1,6,0.00
2013-5-27,82.4,67.2,55.6,62.8,54.1,46.4,82,64,42,30.22,29.98,5,1,7,0.01
2013-5-28,86.5,74.9,65.3,64.5,59.4,55.5,79,60,40,30.07,29.93,6,2,13,0.00
2013-5-29,87.8,76.0,62.7,66.4,60.8,56.2,87,61,39,30.11,30.00,6,1,12,0.00
2013-5-30,88.8,75.5,61.5,66.5,62.8,57.3,98,69,36,30.17,30.01,2,0,6,0.00
2013-5-31,89.3,76.5,63.1,66.0,63.2,60.7,94,66,40,30.09,29.94,6,1,10,0.00
2013-6-1,87.0,78.3,68.4,71.8,65.6,61.2,89,66,52,29.97,29.77,8,2,12,0.01
2013-6-2,78.3,71.9,66.6,68.2,65.8,63.6,95,82,61,29.90,29.79,4,1,7,0.11
2013-6-3,78.1,68.4,62.1,65.7,60.2,54.8,99,77,46,30.02,29.84,4,1,7,0.26
2013-6-4,77.0,65.3,53.3,55.0,51.1,47.2,96,64,36,30.12,30.02,4,1,7,0.00
2013-6-5,86.7,67.9,52.5,66.3,58.0,49.9,93,73,42,30.06,29.85,5,1,10,0.00
2013-6-6,78.6,71.2,66.3,71.8,66.7,64.7,99,86,69,29.87,29.71,5,1,10,0.63
2013-6-7,71.1,65.3,58.3,65.4,60.5,56.0,98,85,67,29.86,29.72,4,1,8,0.00
2013-6-8,80.7,68.2,57.0,62.5,58.7,56.4,99,75,45,30.03,29.86,2,0,6,0.00
2013-6-9,85.3,70.5,58.6,70.2,63.3,57.8,99,81,42,30.07,29.94,4,1,8,0.63
2013-6-10,80.3,68.9,64.5,68.8,66.5,62.8,99,93,57,29.95,29.77,5,1,9,0.86
2013-6-11,86.5,73.9,63.2,67.6,64.7,62.6,98,76,48,29.94,29.85,5,2,11,0.00
2013-6-12,92.7,79.3,65.5,75.4,69.7,64.0,96,74,53,29.91,29.75,5,1,10,0.00
2013-6-13,80.7,74.6,61.3,73.6,66.1,57.1,97,76,53,29.84,29.57,10,2,18,0.42
2013-6-14,80.7,68.4,55.4,62.2,57.1,52.6,99,71,40,30.03,29.85,5,1,7,0.00
2013-6-15,82.8,69.3,54.2,65.0,58.6,53.6,99,73,41,30.11,29.96,3,0,7,0.00
2013-6-16,81.6,71.2,62.7,72.4,65.7,61.2,96,84,60,30.03,29.94,4,1,8,0.07
2013-6-17,88.6,75.0,64.7,71.5,67.2,64.1,99,79,47,29.97,29.83,3,0,6,0.00
2013-6-18,80.1,70.0,64.8,67.6,65.3,63.0,98,86,59,29.93,29.82,4,0,10,0.48
2013-6-19,83.4,71.2,62.0,66.0,60.7,55.3,97,72,39,30.09,29.91,3,0,7,0.00
2013-6-20,86.7,71.6,56.5,64.5,60.1,55.9,99,72,36,30.18,30.09,3,0,7,0.00
2013-6-21,89.0,74.5,59.5,68.9,63.1,58.6,98,72,40,30.19,30.09,2,0,6,0.00
2013-6-22,89.7,77.7,65.8,71.1,67.9,64.6,97,74,46,30.18,30.02,3,1,5,0.00
2013-6-23,90.1,77.4,65.5,70.6,66.5,61.2,99,73,40,30.14,30.02,3,1,7,0.00
2013-6-24,90.7,77.3,65.5,70.2,67.6,64.4,98,75,45,30.13,30.01,4,1,10,0.00
2013-6-25,92.1,79.6,67.9,73.3,69.3,66.4,95,72,46,30.06,29.90,4,1,8,0.00
2013-6-26,86.5,77.5,68.6,72.8,69.9,66.5,97,79,57,29.92,29.77,6,1,7,0.23
2013-6-27,84.1,73.2,66.9,72.0,69.0,66.5,100,88,62,29.81,29.67,4,1,10,1.16
2013-6-28,88.2,78.6,68.6,70.6,65.8,57.6,95,68,40,29.68,29.52,8,3,17,0.00
2013-6-29,83.2,70.4,60.4,70.1,63.4,59.0,97,80,49,29.66,29.55,5,1,11,0.32
2013-6-30,84.5,70.6,62.1,69.5,65.9,61.8,99,86,54,29.77,29.62,4,0,6,0.08
2013-7-1,83.8,72.2,65.2,68.3,65.8,63.0,99,82,54,29.89,29.75,5,1,7,0.31
2013-7-2,84.1,73.1,64.2,70.3,66.8,63.6,100,82,55,30.01,29.87,5,1,7,0.01
2013-7-3,85.3,74.3,67.3,72.5,69.3,66.1,97,85,58,30.11,30.01,3,0,6,0.03
2013-7-4,80.5,72.0,67.6,72.2,69.3,67.0,99,92,72,30.18,30.07,4,0,8,0.82
2013-7-5,84.1,73.1,67.6,73.2,69.8,67.2,100,90,62,30.15,30.07,5,1,10,0.25
2013-7-6,85.9,73.8,68.9,74.5,70.4,68.0,100,91,58,30.13,30.02,6,1,12,0.28
2013-7-7,80.5,71.8,67.4,72.5,68.8,65.6,100,91,70,30.12,30.01,2,0,5,0.54
2013-7-8,87.4,75.8,64.2,74.3,68.9,63.7,100,81,51,30.13,30.04,3,0,6,0.00
2013-7-9,91.4,79.4,71.8,75.6,70.9,-99.9,96,79,48,30.07,29.97,4,-10,7,0.01
2013-7-10,88.5,77.4,67.8,77.4,72.3,65.7,97,85,61,29.98,29.83,11,1,12,0.30
2013-7-11,81.1,71.4,66.0,70.5,67.9,65.5,100,90,65,29.96,29.88,6,1,11,0.01
2013-7-12,81.0,70.6,61.5,65.3,58.9,-99.9,87,68,47,30.04,29.95,9,-2,13,0.00
2013-7-13,85.1,73.6,61.0,68.4,63.7,58.8,95,73,52,30.11,30.02,7,1,12,0.00
2013-7-14,88.3,79.3,68.4,73.0,69.4,66.0,93,73,55,30.21,30.10,11,2,13,0.00
2013-7-15,91.6,79.5,67.5,73.2,69.2,66.0,98,74,44,30.29,30.19,6,0,8,0.00
2013-7-16,93.6,80.9,68.5,73.6,70.7,67.8,98,74,44,30.30,30.21,3,0,5,0.00
2013-7-17,93.9,82.2,72.5,77.2,73.0,68.9,97,76,46,30.27,30.13,12,1,12,0.00
2013-7-18,93.9,82.9,73.9,77.7,74.3,71.8,98,78,50,30.16,30.00,5,0,7,0.00
2013-7-19,92.5,81.2,73.2,76.8,73.8,70.2,98,80,56,30.03,29.88,8,1,12,0.01
2013-7-20,91.4,78.4,69.8,74.7,71.5,68.5,98,81,51,29.93,29.81,8,2,17,0.24
2013-7-21,85.1,75.2,69.3,74.1,70.6,68.9,100,87,61,29.96,29.85,6,0,7,0.66
2013-7-22,82.9,73.4,70.9,73.6,71.0,69.4,98,93,69,29.91,29.75,6,0,11,0.82
2013-7-23,88.9,76.1,69.1,73.6,70.2,66.0,99,84,51,29.81,29.71,8,1,12,0.05
2013-7-24,78.8,71.5,67.6,69.3,65.2,59.7,99,82,55,29.93,29.72,6,1,12,0.36
2013-7-25,79.0,68.3,58.1,61.2,57.6,55.2,95,71,47,30.06,29.93,8,1,10,0.00
2013-7-26,83.1,69.0,55.8,66.7,59.9,55.2,100,77,42,30.08,29.96,9,0,10,0.01
2013-7-27,79.9,70.4,62.8,68.0,64.5,61.9,98,83,60,29.96,29.83,10,1,12,0.25
2013-7-28,77.2,68.1,57.6,65.1,58.7,51.4,99,76,42,30.06,29.86,11,1,13,0.01
2013-7-29,80.2,66.0,51.6,64.0,56.5,51.1,99,76,41,30.16,30.05,8,0,12,0.00
2013-7-30,83.1,70.8,57.9,67.6,62.1,57.4,99,77,46,30.21,30.11,5,0,8,0.00
2013-7-31,76.5,69.6,66.4,68.2,66.1,63.7,98,89,71,30.11,29.93,6,0,8,0.04
2013-8-1,84.6,73.5,64.6,69.3,66.3,61.5,97,80,51,29.94,29.88,8,1,14,0.00
2013-8-2,84.4,72.1,59.5,66.6,62.8,58.6,99,75,44,30.00,29.93,11,1,11,0.00
2013-8-3,81.9,72.8,66.7,69.4,67.1,64.6,96,83,64,29.98,29.92,7,0,11,0.00
2013-8-4,79.0,69.8,59.7,70.3,62.8,54.5,100,81,46,30.08,29.97,7,1,11,0.01
2013-8-5,79.9,66.8,54.1,61.7,57.0,51.4,99,75,40,30.10,29.96,7,0,8,0.00
2013-8-6,84.0,72.5,63.1,69.4,63.0,57.6,95,74,49,29.99,29.91,6,0,8,0.00
2013-8-7,84.6,75.7,66.6,75.2,70.7,65.8,99,85,66,29.94,29.87,7,1,10,0.02
2013-8-8,83.8,76.7,71.1,75.2,72.3,70.2,98,87,69,29.93,29.88,8,1,13,0.10
2013-8-9,86.2,75.9,71.8,74.3,72.4,71.1,99,90,64,29.99,29.88,10,1,16,0.57
2013-8-10,83.8,75.5,69.4,73.4,69.7,66.0,100,84,58,30.08,29.98,9,0,9,1.41
2013-8-11,87.6,75.1,68.5,74.7,70.5,66.2,99,87,53,30.08,29.99,5,0,8,0.23
2013-8-12,82.8,74.3,70.0,75.2,71.8,69.6,100,92,70,30.04,29.87,8,1,11,0.02
2013-8-13,78.6,72.2,65.7,72.7,67.2,58.5,98,85,62,29.97,29.82,8,1,16,0.44
2013-8-14,65.5,58.0,52.2,58.1,53.4,51.3,98,85,74,30.08,29.97,2,0,4,0.00
2013-8-16,76.6,67.2,60.6,61.9,59.9,58.5,94,79,54,30.11,30.07,2,0,3,0.00
2013-8-17,78.1,67.4,56.7,64.4,60.6,56.3,100,81,54,30.16,30.10,7,1,9,0.00
2013-8-18,72.3,67.3,64.0,69.3,65.7,62.8,98,95,85,30.16,30.09,3,0,6,0.28
2013-8-19,81.9,70.0,63.9,68.4,65.1,62.1,100,87,53,30.14,30.04,5,0,7,0.00
2013-8-20,84.0,72.0,62.1,71.6,64.8,61.5,100,81,50,30.17,30.06,6,0,8,0.01
2013-8-21,87.6,73.0,64.9,73.8,68.0,64.6,99,86,51,30.16,30.05,7,0,12,0.00
2013-8-22,88.2,74.4,64.8,73.4,68.4,63.3,97,83,53,30.12,29.98,7,1,12,0.06
2013-8-23,84.7,74.2,65.8,70.7,67.8,63.7,100,83,52,30.09,29.97,8,1,12,0.01
2013-8-24,84.0,70.9,59.9,68.9,62.0,54.9,100,78,37,30.25,30.09,5,1,10,0.00
2013-8-25,84.4,70.0,57.4,66.6,59.0,50.9,100,74,32,30.35,30.22,6,0,8,0.00
2013-8-26,89.2,72.6,57.2,71.1,64.4,56.8,99,79,41,30.26,30.05,8,0,10,0.00
2013-8-27,88.9,77.8,68.4,73.6,70.7,67.1,97,80,57,30.05,29.94,6,1,11,0.00
2013-8-28,90.3,79.4,72.9,75.0,72.9,70.5,99,82,56,29.94,29.80,14,2,30,1.13
2013-8-29,84.0,75.0,70.5,73.6,71.4,69.6,99,90,65,30.00,29.89,6,0,11,0.01
2013-8-30,88.2,75.7,67.8,74.3,70.1,67.3,100,85,52,29.96,29.83,6,0,12,0.00
2013-8-31,84.0,73.6,68.5,72.1,69.5,67.6,99,88,61,29.91,29.75,11,1,13,0.12
2013-9-1,86.2,75.9,68.7,71.4,69.3,67.6,98,82,57,29.82,29.74,7,0,8,0.00
2013-9-2,87.6,76.6,69.6,72.3,69.8,65.7,98,81,55,29.83,29.75,8,1,13,0.00
2013-9-3,79.9,70.8,61.3,66.7,61.5,55.9,98,74,49,30.05,29.81,8,1,14,0.00
2013-9-4,80.8,65.4,52.5,63.3,57.2,52.0,99,78,45,30.13,30.04,7,0,7,0.00
2013-9-5,84.6,69.4,55.0,68.0,60.7,54.7,100,78,46,30.16,30.09,5,0,8,0.00
2013-9-6,79.9,67.0,55.2,61.7,53.7,48.0,93,66,34,30.22,30.09,6,0,8,0.00
2013-9-7,84.4,67.0,50.7,66.7,57.3,50.2,100,76,34,30.11,29.95,6,0,8,0.00
2013-9-8,88.9,74.9,63.1,72.1,66.7,61.9,97,79,47,29.96,29.90,5,0,10,0.00
2013-9-9,90.3,76.5,65.1,72.7,68.8,64.8,99,80,47,30.04,29.96,7,1,10,0.00
2013-9-10,90.7,78.7,69.6,74.5,71.0,68.4,98,80,53,30.14,30.02,8,1,10,0.00
2013-9-11,90.0,78.6,70.3,73.8,71.6,69.8,99,81,54,30.15,30.01,8,0,11,0.00
2013-9-12,86.7,73.7,67.5,72.9,70.0,66.9,98,89,60,30.01,29.82,12,1,21,0.48
2013-9-13,68.7,63.5,53.4,67.6,54.1,45.7,98,74,48,30.04,29.81,12,2,14,0.02
2013-9-14,69.8,57.5,46.8,52.0,48.1,44.1,96,74,43,30.15,30.04,6,0,8,0.00
2013-9-15,78.4,62.1,46.8,62.4,55.1,46.6,100,81,50,30.16,30.03,10,1,13,0.01
2013-9-16,71.2,63.5,55.0,62.8,58.7,54.0,98,85,64,30.25,30.04,5,0,10,0.04
2013-9-17,75.0,62.1,51.3,59.0,54.8,50.4,99,80,49,30.31,30.15,11,1,12,0.00
2013-9-18,67.1,61.7,54.9,63.1,59.2,54.0,98,92,79,30.17,30.09,5,0,8,0.01
2013-9-19,76.8,67.3,60.3,70.5,65.6,59.9,100,95,80,30.11,29.97,5,0,6,0.19
2013-9-20,85.3,73.8,65.3,70.3,67.4,64.9,100,83,53,30.01,29.80,6,1,13,0.00
2013-9-21,71.1,66.1,57.0,67.6,63.8,56.5,99,93,71,29.81,29.65,12,0,16,0.88
2013-9-22,67.3,57.7,49.3,56.3,52.6,48.4,99,84,58,29.99,29.81,6,0,6,0.00
2013-9-23,68.9,56.2,43.9,52.5,48.2,43.3,100,77,49,30.10,29.99,7,1,8,0.01
2013-9-24,74.8,57.9,41.9,60.6,51.4,41.4,100,81,56,30.09,29.91,6,0,6,0.00
2013-9-25,73.2,61.6,51.6,63.0,57.2,51.3,99,87,61,29.91,29.84,3,0,7,0.00
2013-9-26,77.4,63.3,55.6,64.6,59.5,55.6,100,89,57,30.04,29.88,6,0,10,0.00
2013-9-27,80.1,63.9,54.0,62.8,55.8,50.7,100,80,40,30.15,30.04,6,0,6,0.01
2013-9-28,79.3,62.6,51.3,64.0,55.9,50.7,100,82,42,30.21,30.07,6,0,7,0.01
2013-9-29,76.1,64.0,53.4,63.7,58.7,52.9,99,85,56,30.09,29.98,7,0,8,0.00
2013-9-30,75.9,65.0,57.9,64.4,60.8,57.6,100,88,57,30.05,29.95,5,0,8,0.00
2013-10-1,81.1,67.8,57.0,64.2,60.3,56.7,100,80,48,30.09,30.00,6,0,9,0.00
2013-10-2,82.8,69.4,57.9,68.5,63.2,57.6,100,83,54,30.12,30.01,6,0,7,0.00
2013-10-3,82.6,69.5,63.9,70.9,66.4,63.3,99,91,59,30.08,30.01,7,0,12,0.10
2013-10-4,85.3,70.8,60.6,71.6,64.5,60.6,100,84,48,30.11,30.01,7,0,9,0.01
2013-10-5,84.0,72.1,63.3,71.4,66.8,62.4,99,85,59,30.07,29.93,5,0,8,0.00
2013-10-6,85.6,73.2,59.9,67.5,63.6,55.8,99,75,46,29.93,29.70,16,2,17,0.02
2013-10-7,66.7,56.5,46.0,55.8,48.6,43.0,99,78,45,30.14,29.80,11,1,16,0.48
2013-10-8,68.9,53.3,41.9,53.1,44.7,41.0,100,77,37,30.27,30.14,10,1,14,0.01
2013-10-9,73.2,54.9,41.7,53.1,45.6,41.2,100,76,32,30.25,30.14,6,0,8,0.00
2013-10-10,76.3,56.6,42.6,52.2,46.0,41.9,100,74,30,30.18,30.04,5,0,8,0.00
2013-10-11,77.7,61.2,46.0,59.2,52.0,45.5,99,75,46,30.08,29.97,11,1,13,0.00
2013-10-12,63.1,60.1,55.8,57.6,56.3,54.0,97,87,80,30.12,30.01,2,0,5,0.00
2013-10-13,73.0,62.8,55.0,61.9,58.6,54.5,100,87,66,30.24,30.11,6,0,9,0.00
2013-10-14,66.9,63.5,60.3,62.1,59.4,55.9,94,87,77,30.27,30.16,6,1,7,0.00
2013-10-15,73.6,65.0,57.6,62.4,60.2,56.5,99,86,64,30.17,29.95,4,0,7,0.00
2013-10-16,67.5,63.4,61.2,62.8,61.8,59.7,98,95,78,29.95,29.90,6,0,11,0.15
2013-10-17,61.0,55.0,50.5,60.4,54.2,49.1,99,97,92,29.99,29.83,8,0,13,0.33
2013-10-18,65.8,52.7,41.4,52.9,45.2,39.0,100,80,40,30.07,29.96,5,0,8,0.01
2013-10-19,55.9,46.0,39.6,51.3,43.6,38.7,100,92,73,30.03,29.83,11,1,16,0.03
2013-10-20,62.4,46.9,35.6,46.2,38.6,34.5,100,78,36,30.11,30.02,8,1,10,0.00
2013-10-21,70.2,51.4,33.8,46.9,39.5,33.3,100,70,30,30.09,29.90,10,1,14,0.00
2013-10-22,57.0,48.7,41.2,46.9,37.3,27.9,92,67,33,30.05,29.86,8,1,13,0.07
2013-10-23,46.2,42.4,36.0,45.0,39.7,34.7,98,90,76,30.05,29.72,8,1,13,0.19
2013-10-24,49.5,41.6,35.6,37.4,33.7,24.8,96,76,42,30.24,30.05,7,1,12,0.01
2013-10-25,47.3,39.1,31.6,37.2,31.8,27.1,97,78,46,30.44,30.24,6,1,9,0.00
2013-10-26,52.5,40.6,27.5,32.9,28.3,25.0,95,66,36,30.34,29.98,14,1,17,0.01
2013-10-27,63.1,47.3,33.8,41.0,36.1,32.2,97,68,34,30.11,30.03,11,0,12,0.00
2013-10-28,61.9,46.2,34.9,50.2,41.3,34.0,99,85,54,30.27,30.10,2,0,5,0.00
2013-10-29,58.6,48.6,41.5,55.0,47.6,40.8,100,97,81,30.36,30.22,2,0,2,0.01
2013-10-30,65.8,58.8,51.6,63.0,57.5,51.1,100,96,86,30.22,30.05,2,0,3,0.11
2013-10-31,72.9,65.1,61.0,61.0,57.5,54.5,98,77,57,30.05,29.44,11,2,17,0.01
2013-11-1,73.2,60.5,53.1,62.1,49.5,42.6,95,69,41,29.72,29.41,19,3,32,0.20
2013-11-2,58.1,51.6,43.5,46.4,41.5,36.3,92,70,46,30.03,29.69,10,1,14,0.00
2013-11-3,53.8,42.6,33.4,42.4,36.5,31.8,97,81,51,30.39,30.04,6,0,8,0.00
2013-11-4,60.4,44.7,30.7,42.1,36.6,30.0,99,77,44,30.44,30.32,5,0,6,0.01
2013-11-5,65.3,51.2,41.2,41.4,38.3,34.9,88,64,34,30.44,30.27,6,0,8,0.00
2013-11-6,74.1,59.9,41.4,59.4,47.3,36.9,94,65,46,30.27,29.93,17,2,19,0.05
2013-11-7,61.0,46.4,32.2,59.5,38.2,25.3,96,75,41,30.22,29.91,13,2,15,0.32
2013-11-8,53.4,40.2,31.3,32.0,27.5,23.2,86,63,31,30.37,30.20,6,1,11,0.00
2013-11-9,64.2,47.3,27.9,34.5,26.5,19.6,96,52,18,30.27,30.06,11,2,18,0.00
2013-11-10,53.4,46.7,30.9,37.6,30.0,23.0,82,54,31,30.34,30.09,13,2,18,0.00
2013-11-11,61.2,44.9,27.3,39.9,26.2,20.8,93,56,21,30.34,30.05,15,1,16,0.00
2013-11-12,52.0,33.0,23.5,41.7,26.4,19.9,96,77,57,30.61,30.08,11,2,18,0.15
2013-11-13,41.4,28.6,18.3,25.2,19.3,14.2,94,71,34,30.65,30.45,7,0,12,0.00
2013-11-14,55.9,36.7,22.6,26.1,21.0,14.9,90,59,20,30.44,30.19,11,1,12,0.00
2013-11-15,57.9,43.6,27.7,45.3,32.3,22.8,96,68,30,30.25,30.12,8,0,12,0.04
2013-11-16,65.1,51.8,38.8,54.0,47.7,38.3,100,87,65,30.16,29.96,8,0,12,0.00
2013-11-17,65.7,60.3,54.3,61.3,54.1,49.8,99,81,68,29.96,29.59,24,2,32,0.68
2013-11-18,59.5,51.1,42.3,50.4,36.5,26.4,88,59,34,30.13,29.77,15,2,20,0.00
2013-11-19,41.9,35.7,27.5,30.0,26.6,24.3,89,70,55,30.34,30.13,6,1,11,0.00
2013-11-20,55.0,40.3,27.9,32.2,27.5,23.5,90,62,37,30.35,30.24,6,1,10,0.00
2013-11-21,59.4,48.3,37.2,43.5,36.2,26.6,77,63,51,30.36,30.17,5,0,5,0.00
2013-11-22,58.6,52.3,42.4,57.7,48.8,36.0,98,88,72,30.27,30.10,13,1,17,0.25
2013-11-23,44.4,37.3,27.0,36.1,24.5,11.8,81,61,29,30.47,30.25,19,3,21,0.00
2013-11-24,30.0,23.5,17.1,17.8,8.4,3.9,76,53,34,30.68,30.47,14,2,17,0.00
2013-11-25,43.2,30.9,16.3,30.9,15.7,10.0,87,57,29,30.58,30.22,10,1,14,0.00
2013-11-26,36.3,34.2,31.8,36.1,33.4,30.7,99,97,87,30.22,29.83,10,1,11,0.62
2013-11-27,31.8,28.9,23.9,31.3,23.0,16.2,98,79,61,30.29,29.84,17,3,22,0.03
2013-11-28,35.1,25.8,17.2,21.4,17.1,13.5,89,71,49,30.47,30.30,10,1,11,0.05
2013-11-29,43.0,28.4,16.7,26.8,20.9,14.5,94,76,43,30.63,30.48,5,0,7,0.00
2013-11-30,54.1,33.8,20.1,30.2,25.1,18.1,95,74,37,30.54,30.22,8,1,14,0.00
2013-12-1,47.1,39.7,28.9,34.5,29.9,26.1,92,69,50,30.22,29.96,6,0,9,0.00
2013-12-2,57.2,45.4,35.4,39.7,36.2,32.2,91,72,49,29.96,29.75,4,0,6,0.00
2013-12-3,57.6,45.5,34.7,46.6,40.6,33.1,97,84,64,29.87,29.77,6,0,8,0.00
2013-12-4,68.2,55.5,40.3,53.6,47.6,39.2,98,77,59,29.91,29.76,8,1,15,0.00
2013-12-5,70.3,58.4,38.3,62.4,53.0,37.2,97,83,67,30.08,29.80,11,2,19,0.62
2013-12-6,38.5,35.4,31.3,37.4,34.2,30.0,97,95,94,30.31,30.04,7,1,11,0.77
2013-12-7,31.3,29.0,26.1,30.0,24.3,20.3,95,82,73,30.58,30.31,7,1,10,0.04
2013-12-8,32.9,29.5,25.3,32.7,27.4,19.4,99,92,77,30.54,30.02,6,1,9,0.00
2013-12-9,36.9,34.4,31.3,36.1,31.5,25.5,100,89,77,30.22,30.01,6,1,10,0.53
2013-12-10,34.3,30.3,27.0,25.5,20.6,15.8,80,68,50,30.34,30.07,11,2,14,0.04
2013-12-11,42.3,29.7,16.7,23.5,19.5,14.5,92,68,43,30.45,30.29,11,1,17,0.11
2013-12-12,30.4,24.6,18.3,18.5,9.6,1.8,71,54,30,30.56,30.36,10,1,13,0.00
2013-12-13,44.1,29.8,16.0,24.3,15.9,9.3,84,59,30,30.37,30.15,13,1,13,0.03
2013-12-14,42.4,38.1,34.0,42.3,36.6,22.3,99,94,57,30.19,29.70,12,1,13,0.29
2013-12-15,39.4,32.8,29.8,37.0,27.3,23.0,91,80,71,30.11,29.77,13,3,21,0.00
2013-12-16,38.8,33.3,29.3,31.6,28.5,24.3,94,82,72,30.14,30.02,7,0,11,0.01
2013-12-17,42.8,38.0,30.0,36.7,31.8,22.3,95,78,65,30.17,29.94,8,2,18,0.00
2013-12-18,41.4,32.4,27.3,24.8,21.7,18.3,82,66,41,30.27,30.13,13,2,18,0.00
2013-12-19,61.5,45.2,28.8,31.6,24.4,17.6,73,46,27,30.16,30.01,13,2,20,0.00
2013-12-20,62.1,56.7,45.9,51.4,38.6,22.5,89,54,30,30.01,29.88,11,2,17,0.04
2013-12-21,74.1,65.5,56.7,62.6,57.0,50.5,95,75,58,29.89,29.56,14,3,22,0.30
2013-12-22,71.4,59.5,53.1,60.4,54.0,46.9,97,82,62,29.96,29.54,19,3,27,0.81
2013-12-23,52.9,38.7,30.9,49.6,33.9,25.5,97,83,64,30.34,29.95,16,2,20,0.09
2013-12-24,32.2,25.6,15.6,25.7,15.2,6.3,87,65,40,30.56,30.32,14,2,19,0.00
2013-12-25,37.9,26.4,15.4,23.5,14.5,10.0,80,63,36,30.53,30.22,7,0,11,0.00
2013-12-26,44.8,36.3,24.6,25.7,22.0,17.8,84,57,36,30.39,30.19,12,2,20,0.00
2013-12-27,51.4,33.0,20.1,27.3,21.3,18.0,93,67,28,30.45,30.32,7,1,10,0.00
2013-12-28,53.2,38.9,23.2,31.3,24.7,20.5,90,61,31,30.34,30.02,7,0,8,0.00
2013-12-29,43.9,41.0,38.8,43.3,38.9,30.9,99,92,64,30.02,29.77,13,1,13,0.76
2013-12-30,38.5,33.7,29.5,36.7,27.0,20.8,94,77,65,30.20,29.96,10,1,14,0.01
2013-12-31,37.6,29.0,23.5,21.6,19.7,17.2,87,69,46,30.38,30.18,18,2,18,0.00
2014-1-1,50.5,34.4,21.9,27.9,23.8,18.9,91,69,32,30.32,30.03,7,1,11,0.00
2014-1-2,36.7,29.7,14.7,33.8,26.1,11.1,96,86,71,30.15,29.69,24,2,24,0.23